Hourly Data Report for September 21, 2017

All times are specified in Local Standard Time (LST). Add 1 hour to adjust for Daylight Saving Time where and when it is observed.

ST. STEPHEN
NEW BRUNSWICK

45°12'36.600" N
67°15'10.300" W
26.10 m
8104935
71607
WSS

Download Data

Hourly Data (September 2017)
Hourly Data Report for September 21, 2017
Temp Definition
°C
Dew Point Temp Definition
°C
Rel Hum Definition
%
Wind Dir Definition
10's deg

Wind Spd Definition
km/h
Visibility Definition
km
Stn Press Definition
kPa
Hmdx Definition


Wind Chill Definition


Weather Definition


TIME
00:00 20.4 18.3 88 4 12   101.32 27   LegendNANA
01:00 20.0 16.3 79 5 15   101.40 25   LegendNANA
02:00 18.3 14.6 79 4 13   101.36     LegendNANA
03:00 17.1 14.6 85 3 10   101.41     LegendNANA
04:00 16.7 14.5 87 2 9   101.43     LegendNANA
05:00 16.1 13.9 87 2 10   101.47     LegendNANA
06:00 15.3 13.7 90 2 10   101.51     LegendNANA
07:00 14.9 12.7 86 3 6   101.56     LegendNANA
08:00 16.3 12.0 75 3 12   101.63     LegendNANA
09:00 17.8 11.1 65 4 12   101.67     LegendNANA
10:00 19.6 10.0 54 5 19   101.70     LegendNANA
11:00 20.2 9.1 49 3 23   101.70     LegendNANA
12:00 21.2 9.4 47 3 16   101.68     LegendNANA
13:00 21.8 8.4 42 3 13   101.67     LegendNANA
14:00 22.0 8.8 43 2 19   101.64     LegendNANA
15:00 22.3 9.6 45 5 18   101.66     LegendNANA
16:00 22.1 9.2 44 4 17   101.63     LegendNANA
17:00 21.3 8.9 45 3 13   101.65     LegendNANA
18:00 19.2 9.8 55 4 7   101.65     LegendNANA
19:00 16.4 10.0 66 3 7   101.69     LegendNANA
20:00 15.0 9.2 68 3 5   101.75     LegendNANA
21:00 14.1 8.3 68 6 6   101.82     LegendNANA
22:00 12.9 7.6 70 5 8   101.88     LegendNANA
23:00 12.0 6.9 71 7 6   101.90     LegendNANA

Notes on Data Quality.

Legend

  • E = Estimated
  • M = Missing
  • NA = Not Available
  • ‡ = Partner data that is not subject to review by the National Climate Archives
Date modified: